QPF
0.01 0.01 0.01 0.01 0.02 0.02 0.02 0.03 0.04 0.04 0.11 0.17 0.17 0.15 0.11 0.08 0.05 0.04 0.04 0.08 0.08 0.07 0.09 0.11 0.11 0.10 0.11 0.11 0.11 0.12 0.11 0.11 0.09 0.07 0.04 0.03 0.02 0.03 0.03 0.04 0.04 0.04 0.03
0.01 0.01 0.01 0.02 0.02 0.03 0.02 0.02 0.03 0.03 0.05 0.10 0.10 0.09 0.09 0.07 0.05 0.04 0.04 0.07 0.11 0.10 0.09 0.10 0.13 0.13 0.10 0.08 0.08 0.10 0.13 0.15 0.14 0.10 0.06 0.04 0.03 0.04 0.04 0.04 0.04 0.04 0.03
0.02 0.01 0.02 0.02 0.02 0.03 0.03 0.03 0.02 0.03 0.04 0.05 0.09 0.10 0.09 0.09 0.08 0.08 0.06 0.07 0.08 0.08 0.09 0.09 0.12 0.13 0.12 0.10 0.10 0.11 0.11 0.11 0.12 0.08 0.06 0.05 0.06 0.06 0.06 0.06 0.05 0.05 0.05
0.03 0.02 0.03 0.02 0.02 0.03 0.04 0.04 0.03 0.02 0.04 0.05 0.07 0.08 0.08 0.09 0.10 0.10 0.08 0.09 0.08 0.06 0.07 0.12 0.14 0.13 0.13 0.14 0.15 0.15 0.14 0.11 0.09 0.08 0.07 0.06 0.06 0.06 0.06 0.07 0.07 0.07 0.06
0.03 0.02 0.02 0.02 0.02 0.03 0.04 0.03 0.03 0.03 0.03 0.04 0.06 0.09 0.10 0.10 0.11 0.08 0.06 0.07 0.06 0.06 0.07 0.12 0.17 0.17 0.18 0.22 0.21 0.20 0.16 0.12 0.11 0.10 0.09 0.08 0.06 0.06 0.08 0.08 0.08 0.07 0.06
0.02 0.02 0.02 0.02 0.02 0.03 0.03 0.03 0.03 0.03 0.03 0.04 0.06 0.10 0.11 0.11 0.10 0.07 0.06 0.06 0.07 0.06 0.08 0.11 0.13 0.20 0.24 0.27 0.27 0.24 0.20 0.15 0.12 0.11 0.09 0.08 0.08 0.09 0.09 0.07 0.07 0.07 0.06
0.02 0.02 0.03 0.04 0.03 0.03 0.04 0.04 0.03 0.03 0.04 0.04 0.06 0.07 0.09 0.10 0.08 0.06 0.05 0.06 0.05 0.04 0.06 0.09 0.12 0.18 0.25 0.22 0.21 0.20 0.20 0.16 0.12 0.11 0.09 0.09 0.09 0.09 0.09 0.09 0.08 0.08 0.08
0.03 0.03 0.04 0.04 0.03 0.04 0.05 0.05 0.05 0.04 0.05 0.05 0.05 0.05 0.05 0.05 0.05 0.05 0.04 0.03 0.04 0.03 0.04 0.05 0.05 0.07 0.13 0.14 0.13 0.12 0.12 0.15 0.16 0.14 0.11 0.09 0.09 0.09 0.09 0.11 0.12 0.10 0.08
0.04 0.03 0.04 0.04 0.04 0.04 0.05 0.06 0.05 0.06 0.06 0.05 0.05 0.04 0.03 0.03 0.04 0.04 0.04 0.03 0.03 0.04 0.04 0.04 0.03 0.03 0.02 0.04 0.05 0.06 0.06 0.09 0.13 0.14 0.13 0.11 0.09 0.09 0.08 0.08 0.09 0.12 0.11
0.05 0.04 0.04 0.04 0.06 0.06 0.05 0.06 0.05 0.04 0.04 0.04 0.03 0.03 0.03 0.02 0.02 0.02 0.01 0.02 0.03 0.03 0.04 0.05 0.04 0.03 0.03 0.04 0.04 0.05 0.03 0.04 0.07 0.11 0.15 0.14 0.13 0.11 0.09 0.08 0.08 0.10 0.12
0.05 0.05 0.04 0.04 0.04 0.04 0.05 0.05 0.04 0.03 0.03 0.03 0.02 0.02 0.01 0.01 0.02 0.01 0.01 0.01 0.02 0.02 0.03 0.04 0.03 0.02 0.02 0.03 0.03 0.04 0.04 0.03 0.04 0.06 0.08 0.10 0.13 0.14 0.13 0.13 0.13 0.12 0.11
0.03 0.04 0.05 0.06 0.04 0.03 0.03 0.03 0.04 0.02 0.03 0.03 0.02 0.02 0.01 0.01 0.02 0.02 0.02 0.01 0.01 0.01 0.02 0.02 0.03 0.03 0.03 0.03 0.02 0.04 0.04 0.05 0.04 0.04 0.05 0.07 0.10 0.13 0.15 0.16 0.18 0.18 0.16
0.02 0.01 0.02 0.04 0.05 0.03 0.02 0.02 0.02 0.02 0.02 0.03 0.03 0.02 0.02 0.01 0.02 0.02 0.02 0.02 0.01 0.01 0.01 0.01 0.02 0.02 0.02 0.03 0.04 0.04 0.04 0.06 0.06 0.06 0.05 0.06 0.07 0.10 0.14 0.19 0.22 0.25 0.27
0.01 0.01 0.01 0.02 0.04 0.04 0.02 0.02 0.02 0.01 0.01 0.02 0.03 0.03 0.03 0.03 0.03 0.02 0.01 0.02 0.02 0.01 0.01 0.01 0.01 0.02 0.02 0.03 0.04 0.04 0.03 0.04 0.04 0.04 0.03 0.03 0.04 0.06 0.09 0.12 0.14 0.15 0.19
0.00 0.01 0.01 0.02 0.03 0.03 0.02 0.02 0.02 0.01 0.01 0.01 0.02 0.02 0.02 0.03 0.04 0.04 0.02 0.02 0.02 0.01 0.01 0.01 0.02 0.02 0.01 0.01 0.03 0.03 0.03 0.04 0.04 0.03 0.04 0.03 0.03 0.05 0.07 0.09 0.08 0.08 0.08
0.00 0.01 0.01 0.02 0.03 0.02 0.02 0.02 0.02 0.02 0.02 0.02 0.02 0.02 0.02 0.02 0.04 0.04 0.04 0.04 0.03 0.02 0.02 0.02 0.03 0.03 0.02 0.01 0.02 0.02 0.02 0.02 0.03 0.04 0.04 0.04 0.04 0.04 0.04 0.06 0.07 0.07 0.07
0.01 0.01 0.02 0.04 0.05 0.03 0.01 0.01 0.01 0.01 0.01 0.02 0.02 0.03 0.02 0.02 0.02 0.03 0.04 0.04 0.03 0.03 0.03 0.04 0.05 0.04 0.02 0.02 0.03 0.03 0.03 0.02 0.03 0.04 0.04 0.05 0.04 0.03 0.03 0.04 0.06 0.07 0.07
0.02 0.03 0.06 0.07 0.04 0.02 0.01 0.02 0.01 0.01 0.01 0.02 0.03 0.03 0.02 0.02 0.03 0.03 0.03 0.03 0.02 0.02 0.03 0.04 0.05 0.06 0.05 0.04 0.05 0.04 0.03 0.03 0.04 0.06 0.06 0.06 0.05 0.04 0.04 0.04 0.04 0.04 0.05
0.04 0.08 0.08 0.04 0.02 0.02 0.02 0.03 0.03 0.02 0.02 0.02 0.03 0.02 0.01 0.01 0.02 0.02 0.03 0.03 0.03 0.03 0.03 0.03 0.04 0.04 0.05 0.05 0.05 0.03 0.04 0.05 0.04 0.04 0.05 0.06 0.06 0.06 0.06 0.07 0.07 0.05 0.04
0.05 0.06 0.03 0.01 0.01 0.02 0.02 0.01 0.01 0.01 0.02 0.03 0.02 0.01 0.01 0.01 0.01 0.01 0.01 0.02 0.04 0.03 0.02 0.02 0.02 0.02 0.02 0.03 0.04 0.06 0.07 0.05 0.04 0.04 0.04 0.04 0.05 0.05 0.06 0.05 0.06 0.06 0.06
0.04 0.03 0.01 0.01 0.01 0.01 0.01 0.01 0.01 0.02 0.02 0.03 0.01 0.01 0.02 0.02 0.02 0.02 0.02 0.02 0.02 0.02 0.02 0.02 0.01 0.01 0.01 0.02 0.04 0.05 0.03 0.03 0.03 0.03 0.03 0.03 0.03 0.03 0.04 0.04 0.04 0.05 0.06
0.02 0.01 0.01 0.00 0.00 0.00 0.01 0.02 0.02 0.02 0.01 0.01 0.02 0.03 0.04 0.05 0.05 0.04 0.03 0.02 0.02 0.02 0.02 0.02 0.01 0.01 0.00 0.00 0.01 0.02 0.01 0.01 0.01 0.01 0.02 0.02 0.02 0.02 0.03 0.03 0.03 0.04 0.05
0.02 0.01 0.01 0.01 0.00 0.01 0.01 0.02 0.01 0.01 0.01 0.01 0.02 0.03 0.05 0.05 0.04 0.04 0.04 0.03 0.02 0.02 0.02 0.01 0.01 0.00 0.00 0.00 0.01 0.01 0.01 0.01 0.01 0.01 0.01 0.02 0.02 0.02 0.02 0.03 0.04 0.05 0.06
0.04 0.04 0.03 0.02 0.01 0.01 0.02 0.01 0.01 0.01 0.01 0.01 0.01 0.02 0.03 0.04 0.04 0.03 0.02 0.02 0.02 0.02 0.01 0.01 0.00 0.00 0.00 0.01 0.00 0.01 0.01 0.01 0.00 0.00 0.00 0.00 0.00 0.01 0.01 0.02 0.03 0.03 0.02
0.05 0.05 0.04 0.03 0.03 0.02 0.02 0.02 0.01 0.01 0.01 0.01 0.01 0.01 0.02 0.03 0.04 0.04 0.03 0.02 0.01 0.01 0.01 0.00 0.00 0.00 0.00 0.01 0.00 0.01 0.01 0.00 0.00 0.00 0.00 0.00 0.00 0.00 0.00 0.00 0.01 0.02 0.01
0.05 0.05 0.04 0.03 0.03 0.02 0.03 0.03 0.03 0.03 0.01 0.01 0.01 0.02 0.02 0.03 0.03 0.03 0.02 0.02 0.02 0.01 0.01 0.01 0.00 0.00 0.00 0.01 0.01 0.01 0.01 0.01 0.00 0.00 0.00 0.00 0.00 0.01 0.01 0.02 0.02 0.02 0.02
MSLP
1015.92 1016.10 1016.26 1016.42 1016.60 1016.83 1017.11 1017.43 1017.77 1018.09 1018.36 1018.54 1018.63 1018.62 1018.55 1018.46 1018.38 1018.36 1018.42 1018.57 1018.80 1019.10 1019.42 1019.73 1020.01 1020.25 1020.44 1020.60 1020.73 1020.86 1021.00 1021.15 1021.32 1021.50 1021.68 1021.87 1022.04 1022.21 1022.35 1022.49 1022.61 1022.73 1022.83
1015.85 1016.04 1016.22 1016.43 1016.66 1016.94 1017.26 1017.62 1017.97 1018.30 1018.56 1018.73 1018.80 1018.76 1018.66 1018.51 1018.38 1018.30 1018.30 1018.40 1018.59 1018.85 1019.16 1019.48 1019.78 1020.04 1020.26 1020.42 1020.56 1020.67 1020.79 1020.91 1021.05 1021.21 1021.39 1021.56 1021.74 1021.90 1022.06 1022.19 1022.32 1022.43 1022.54
1015.73 1015.93 1016.16 1016.41 1016.71 1017.04 1017.41 1017.79 1018.16 1018.49 1018.75 1018.90 1018.95 1018.89 1018.76 1018.59 1018.41 1018.27 1018.21 1018.24 1018.37 1018.57 1018.84 1019.13 1019.42 1019.68 1019.89 1020.07 1020.20 1020.31 1020.41 1020.52 1020.64 1020.78 1020.94 1021.11 1021.28 1021.44 1021.60 1021.74 1021.87 1022.00 1022.12
1015.61 1015.83 1016.09 1016.40 1016.75 1017.14 1017.54 1017.95 1018.32 1018.63 1018.87 1019.01 1019.05 1018.99 1018.85 1018.66 1018.46 1018.28 1018.16 1018.12 1018.16 1018.29 1018.48 1018.70 1018.95 1019.18 1019.38 1019.54 1019.68 1019.79 1019.88 1019.98 1020.09 1020.22 1020.37 1020.53 1020.69 1020.85 1021.00 1021.15 1021.29 1021.43 1021.57
1015.55 1015.77 1016.07 1016.42 1016.81 1017.23 1017.65 1018.05 1018.41 1018.70 1018.91 1019.04 1019.08 1019.03 1018.90 1018.73 1018.53 1018.33 1018.16 1018.05 1018.01 1018.03 1018.12 1018.26 1018.42 1018.60 1018.76 1018.91 1019.04 1019.15 1019.25 1019.35 1019.46 1019.58 1019.72 1019.87 1020.03 1020.18 1020.33 1020.47 1020.61 1020.75 1020.89
1015.56 1015.79 1016.09 1016.47 1016.88 1017.31 1017.72 1018.09 1018.42 1018.68 1018.86 1018.98 1019.02 1019.00 1018.92 1018.79 1018.61 1018.42 1018.23 1018.07 1017.94 1017.86 1017.83 1017.85 1017.92 1018.02 1018.13 1018.25 1018.36 1018.48 1018.58 1018.69 1018.81 1018.94 1019.07 1019.22 1019.36 1019.50 1019.64 1019.76 1019.88 1020.01 1020.14
1015.65 1015.87 1016.17 1016.54 1016.95 1017.36 1017.74 1018.08 1018.36 1018.57 1018.73 1018.84 1018.91 1018.93 1018.91 1018.84 1018.73 1018.57 1018.38 1018.18 1017.98 1017.79 1017.65 1017.56 1017.51 1017.52 1017.56 1017.64 1017.74 1017.85 1017.96 1018.09 1018.22 1018.35 1018.49 1018.63 1018.76 1018.89 1019.00 1019.09 1019.18 1019.27 1019.36
1015.79 1015.98 1016.27 1016.63 1017.01 1017.39 1017.73 1018.01 1018.23 1018.41 1018.54 1018.65 1018.75 1018.83 1018.88 1018.90 1018.86 1018.76 1018.59 1018.37 1018.12 1017.85 1017.60 1017.39 1017.24 1017.15 1017.12 1017.15 1017.22 1017.33 1017.45 1017.59 1017.74 1017.89 1018.03 1018.16 1018.29 1018.39 1018.46 1018.52 1018.55 1018.58 1018.61
1015.91 1016.08 1016.35 1016.68 1017.03 1017.37 1017.66 1017.89 1018.07 1018.20 1018.32 1018.44 1018.57 1018.71 1018.85 1018.95 1018.99 1018.96 1018.82 1018.61 1018.32 1017.99 1017.66 1017.35 1017.10 1016.93 1016.84 1016.82 1016.86 1016.96 1017.09 1017.24 1017.40 1017.56 1017.71 1017.84 1017.95 1018.02 1018.06 1018.07 1018.04 1018.00 1017.95
1015.96 1016.12 1016.36 1016.67 1016.99 1017.29 1017.54 1017.73 1017.87 1017.97 1018.08 1018.21 1018.37 1018.56 1018.77 1018.95 1019.07 1019.09 1019.00 1018.80 1018.50 1018.14 1017.75 1017.38 1017.07 1016.83 1016.68 1016.63 1016.65 1016.74 1016.87 1017.03 1017.19 1017.36 1017.51 1017.64 1017.74 1017.79 1017.79 1017.75 1017.66 1017.55 1017.41
1015.90 1016.05 1016.28 1016.56 1016.86 1017.13 1017.35 1017.51 1017.63 1017.72 1017.81 1017.95 1018.14 1018.37 1018.62 1018.85 1019.03 1019.10 1019.05 1018.88 1018.58 1018.22 1017.81 1017.41 1017.07 1016.80 1016.63 1016.56 1016.57 1016.64 1016.77 1016.93 1017.09 1017.26 1017.41 1017.53 1017.61 1017.65 1017.62 1017.54 1017.41 1017.23 1017.03
1015.72 1015.86 1016.07 1016.34 1016.62 1016.88 1017.08 1017.23 1017.33 1017.42 1017.51 1017.65 1017.84 1018.08 1018.35 1018.62 1018.82 1018.93 1018.91 1018.76 1018.50 1018.16 1017.78 1017.40 1017.06 1016.80 1016.64 1016.56 1016.57 1016.64 1016.76 1016.91 1017.06 1017.22 1017.36 1017.47 1017.54 1017.56 1017.52 1017.41 1017.25 1017.03 1016.79
1015.44 1015.56 1015.76 1016.01 1016.28 1016.52 1016.72 1016.87 1016.97 1017.05 1017.14 1017.27 1017.46 1017.69 1017.95 1018.21 1018.42 1018.54 1018.55 1018.44 1018.23 1017.94 1017.61 1017.29 1017.01 1016.80 1016.67 1016.62 1016.64 1016.72 1016.82 1016.95 1017.09 1017.21 1017.33 1017.42 1017.48 1017.48 1017.44 1017.33 1017.16 1016.94 1016.68
1015.08 1015.18 1015.36 1015.59 1015.84 1016.08 1016.28 1016.42 1016.53 1016.61 1016.70 1016.81 1016.98 1017.18 1017.41 1017.65 1017.84 1017.96 1017.99 1017.93 1017.78 1017.57 1017.33 1017.11 1016.92 1016.79 1016.73 1016.72 1016.77 1016.84 1016.94 1017.04 1017.14 1017.23 1017.32 1017.38 1017.41 1017.42 1017.37 1017.27 1017.11 1016.90 1016.66
1014.68 1014.76 1014.91 1015.11 1015.34 1015.56 1015.75 1015.90 1016.00 1016.09 1016.16 1016.26 1016.40 1016.57 1016.76 1016.95 1017.12 1017.24 1017.29 1017.27 1017.20 1017.09 1016.97 1016.86 1016.79 1016.77 1016.79 1016.85 1016.93 1017.01 1017.10 1017.17 1017.23 1017.28 1017.31 1017.34 1017.35 1017.34 1017.30 1017.22 1017.08 1016.91 1016.70
1014.28 1014.32 1014.43 1014.60 1014.79 1014.99 1015.17 1015.31 1015.41 1015.49 1015.57 1015.65 1015.75 1015.88 1016.03 1016.19 1016.33 1016.44 1016.51 1016.55 1016.56 1016.56 1016.56 1016.59 1016.65 1016.75 1016.86 1016.99 1017.11 1017.21 1017.28 1017.33 1017.34 1017.34 1017.33 1017.31 1017.29 1017.27 1017.23 1017.16 1017.06 1016.92 1016.75
1013.89 1013.89 1013.95 1014.06 1014.22 1014.39 1014.54 1014.67 1014.78 1014.85 1014.92 1014.99 1015.07 1015.17 1015.28 1015.40 1015.53 1015.64 1015.74 1015.83 1015.92 1016.02 1016.15 1016.31 1016.50 1016.70 1016.92 1017.11 1017.28 1017.40 1017.47 1017.48 1017.46 1017.42 1017.36 1017.30 1017.25 1017.21 1017.16 1017.10 1017.02 1016.92 1016.79
1013.51 1013.46 1013.46 1013.53 1013.64 1013.77 1013.91 1014.02 1014.12 1014.19 1014.25 1014.31 1014.37 1014.45 1014.54 1014.64 1014.75 1014.87 1015.00 1015.14 1015.30 1015.49 1015.73 1016.00 1016.29 1016.60 1016.90 1017.16 1017.37 1017.52 1017.59 1017.60 1017.56 1017.48 1017.39 1017.30 1017.22 1017.15 1017.10 1017.04 1016.97 1016.89 1016.79
1013.13 1013.03 1012.99 1013.01 1013.08 1013.17 1013.28 1013.37 1013.46 1013.53 1013.58 1013.63 1013.68 1013.74 1013.82 1013.91 1014.01 1014.13 1014.28 1014.46 1014.68 1014.94 1015.25 1015.61 1015.99 1016.38 1016.75 1017.07 1017.33 1017.51 1017.61 1017.63 1017.58 1017.50 1017.40 1017.29 1017.19 1017.11 1017.04 1016.97 1016.90 1016.82 1016.73
1012.74 1012.61 1012.53 1012.51 1012.54 1012.60 1012.67 1012.75 1012.81 1012.87 1012.91 1012.94 1012.98 1013.03 1013.09 1013.17 1013.27 1013.40 1013.56 1013.77 1014.02 1014.33 1014.69 1015.10 1015.54 1015.99 1016.41 1016.79 1017.10 1017.33 1017.46 1017.52 1017.50 1017.44 1017.35 1017.25 1017.15 1017.06 1016.98 1016.90 1016.82 1016.73 1016.63
1012.37 1012.21 1012.11 1012.06 1012.05 1012.08 1012.12 1012.16 1012.19 1012.22 1012.24 1012.25 1012.27 1012.30 1012.34 1012.41 1012.50 1012.63 1012.80 1013.01 1013.28 1013.62 1014.01 1014.45 1014.92 1015.40 1015.87 1016.30 1016.66 1016.94 1017.14 1017.25 1017.29 1017.28 1017.23 1017.16 1017.08 1017.00 1016.91 1016.82 1016.72 1016.60 1016.48
1012.05 1011.88 1011.76 1011.68 1011.65 1011.64 1011.64 1011.63 1011.62 1011.60 1011.57 1011.55 1011.53 1011.53 1011.55 1011.60 1011.68 1011.80 1011.96 1012.18 1012.46 1012.80 1013.20 1013.65 1014.14 1014.65 1015.15 1015.62 1016.04 1016.38 1016.65 1016.84 1016.96 1017.02 1017.04 1017.01 1016.97 1016.90 1016.82 1016.72 1016.60 1016.46 1016.31
1011.83 1011.65 1011.52 1011.43 1011.37 1011.32 1011.26 1011.20 1011.12 1011.03 1010.94 1010.85 1010.78 1010.74 1010.72 1010.74 1010.81 1010.91 1011.08 1011.29 1011.57 1011.91 1012.31 1012.77 1013.27 1013.80 1014.33 1014.83 1015.30 1015.71 1016.06 1016.33 1016.54 1016.68 1016.77 1016.81 1016.81 1016.77 1016.70 1016.60 1016.46 1016.30 1016.13
1011.77 1011.59 1011.46 1011.35 1011.25 1011.14 1011.03 1010.88 1010.72 1010.54 1010.37 1010.20 1010.06 1009.96 1009.90 1009.89 1009.93 1010.03 1010.19 1010.41 1010.69 1011.04 1011.44 1011.91 1012.41 1012.95 1013.50 1014.04 1014.55 1015.02 1015.43 1015.78 1016.06 1016.28 1016.44 1016.54 1016.58 1016.58 1016.53 1016.44 1016.30 1016.13 1015.93
1011.90 1011.73 1011.59 1011.45 1011.31 1011.15 1010.96 1010.72 1010.46 1010.19 1009.91 1009.65 1009.43 1009.26 1009.16 1009.11 1009.14 1009.23 1009.39 1009.62 1009.92 1010.28 1010.69 1011.17 1011.68 1012.23 1012.80 1013.36 1013.90 1014.40 1014.86 1015.26 1015.59 1015.86 1016.07 1016.22 1016.30 1016.33 1016.30 1016.22 1016.09 1015.92 1015.73
1012.23 1012.06 1011.91 1011.75 1011.56 1011.34 1011.06 1010.74 1010.37 1009.99 1009.61 1009.26 1008.96 1008.73 1008.57 1008.50 1008.51 1008.60 1008.78 1009.02 1009.34 1009.72 1010.15 1010.64 1011.16 1011.72 1012.28 1012.85 1013.39 1013.91 1014.38 1014.79 1015.15 1015.45 1015.68 1015.85 1015.95 1016.00 1015.99 1015.93 1015.81 1015.66 1015.48
Thickness
5755 5755 5755 5754 5754 5754 5753 5752 5751 5751 5750 5750 5750 5749 5747 5746 5746 5746 5746 5746 5745 5744 5743 5742 5741 5740 5740 5739 5738 5737 5736 5735 5733 5732 5731 5730 5729 5728 5726 5725 5724 5723 5722
5755 5754 5754 5753 5753 5752 5752 5751 5750 5749 5749 5749 5748 5748 5747 5746 5745 5745 5745 5744 5744 5743 5743 5742 5741 5740 5739 5738 5737 5736 5735 5734 5733 5732 5731 5730 5729 5727 5726 5725 5724 5723 5722
5754 5754 5753 5752 5752 5752 5751 5750 5749 5748 5748 5748 5746 5746 5745 5745 5744 5744 5743 5743 5742 5742 5742 5741 5740 5739 5739 5738 5737 5736 5735 5734 5733 5732 5730 5729 5728 5727 5725 5724 5723 5722 5721
5755 5754 5752 5752 5752 5751 5750 5749 5748 5746 5745 5745 5744 5744 5744 5744 5743 5743 5742 5741 5741 5741 5741 5740 5740 5739 5738 5738 5737 5737 5736 5734 5733 5732 5730 5728 5727 5726 5725 5724 5723 5722 5721
5755 5754 5753 5752 5751 5750 5749 5748 5746 5745 5743 5743 5742 5742 5742 5742 5742 5741 5741 5740 5740 5740 5739 5739 5739 5738 5737 5737 5736 5736 5735 5734 5733 5731 5730 5728 5727 5726 5725 5723 5722 5721 5720
5755 5754 5753 5751 5750 5749 5747 5746 5744 5743 5742 5741 5741 5740 5740 5740 5740 5739 5739 5739 5738 5738 5737 5737 5737 5736 5736 5735 5735 5734 5733 5732 5731 5730 5728 5727 5726 5725 5723 5723 5722 5720 5719
5756 5754 5752 5751 5749 5748 5746 5745 5743 5741 5739 5739 5737 5735 5737 5738 5737 5737 5737 5737 5736 5736 5735 5735 5734 5734 5734 5733 5732 5732 5731 5730 5729 5728 5727 5725 5724 5723 5722 5721 5720 5719 5718
5756 5754 5752 5751 5749 5747 5745 5744 5742 5739 5738 5738 5734 5730 5727 5729 5732 5735 5734 5734 5733 5733 5732 5732 5731 5731 5730 5730 5730 5729 5729 5729 5728 5727 5726 5724 5723 5721 5720 5719 5718 5717 5716
5756 5754 5752 5751 5749 5747 5744 5743 5741 5738 5735 5735 5734 5730 5724 5721 5725 5728 5730 5730 5730 5730 5729 5729 5728 5728 5728 5727 5726 5726 5726 5726 5726 5725 5724 5723 5722 5720 5719 5718 5717 5715 5714
5756 5754 5752 5750 5748 5746 5744 5742 5741 5739 5736 5732 5732 5731 5730 5728 5722 5721 5724 5726 5726 5726 5726 5726 5725 5725 5725 5724 5723 5722 5722 5722 5722 5722 5722 5721 5719 5718 5717 5715 5714 5713 5712
5755 5753 5751 5749 5747 5745 5743 5741 5740 5738 5736 5733 5731 5729 5727 5726 5725 5720 5717 5719 5721 5722 5722 5722 5722 5722 5721 5720 5719 5719 5719 5719 5718 5718 5718 5717 5716 5715 5715 5713 5712 5710 5709
5753 5751 5750 5748 5746 5744 5742 5740 5739 5737 5735 5733 5731 5729 5727 5725 5722 5720 5717 5715 5716 5718 5719 5719 5719 5718 5718 5716 5716 5716 5716 5715 5714 5714 5714 5713 5713 5712 5712 5711 5710 5708 5706
5750 5749 5749 5747 5745 5743 5741 5739 5737 5736 5734 5732 5731 5729 5728 5726 5725 5722 5718 5714 5713 5714 5714 5715 5715 5715 5714 5713 5712 5712 5711 5711 5710 5710 5709 5708 5708 5708 5707 5706 5706 5705 5703
5750 5749 5747 5746 5744 5741 5739 5737 5735 5734 5733 5731 5730 5728 5727 5726 5724 5722 5719 5714 5710 5709 5709 5709 5710 5710 5709 5708 5707 5707 5706 5705 5705 5704 5704 5703 5702 5702 5701 5701 5700 5698 5697
5749 5748 5746 5744 5742 5740 5738 5735 5733 5731 5731 5729 5728 5727 5725 5724 5723 5721 5719 5716 5710 5705 5704 5705 5705 5706 5705 5704 5703 5701 5701 5700 5699 5699 5698 5697 5697 5696 5695 5694 5693 5692 5690
5748 5746 5744 5742 5739 5737 5735 5733 5730 5729 5728 5726 5725 5724 5722 5721 5720 5718 5717 5714 5712 5707 5702 5703 5701 5701 5700 5699 5698 5696 5695 5694 5694 5693 5692 5691 5690 5689 5688 5687 5686 5685 5684
5746 5743 5741 5738 5736 5734 5732 5730 5727 5726 5724 5723 5722 5720 5718 5718 5716 5715 5713 5711 5708 5705 5700 5699 5697 5696 5694 5693 5692 5690 5689 5688 5687 5686 5686 5684 5683 5682 5681 5679 5678 5677 5676
5743 5741 5738 5736 5733 5731 5729 5726 5724 5722 5720 5718 5717 5716 5714 5714 5712 5710 5708 5707 5704 5702 5699 5694 5692 5690 5688 5687 5685 5684 5682 5681 5680 5679 5678 5677 5676 5675 5673 5672 5671 5670 5668
5740 5738 5735 5732 5730 5728 5725 5723 5720 5718 5716 5715 5713 5712 5710 5709 5707 5705 5703 5702 5700 5698 5695 5691 5687 5684 5682 5680 5678 5676 5675 5674 5673 5671 5670 5670 5669 5667 5666 5665 5664 5662 5661
5737 5734 5732 5729 5727 5725 5722 5720 5717 5715 5713 5711 5709 5708 5707 5705 5703 5701 5699 5696 5694 5691 5688 5685 5682 5678 5676 5673 5671 5669 5668 5666 5665 5664 5663 5662 5661 5660 5659 5657 5656 5655 5654
5735 5731 5728 5725 5723 5721 5719 5716 5713 5711 5708 5706 5705 5703 5703 5701 5700 5698 5695 5692 5689 5685 5682 5679 5676 5673 5670 5667 5666 5664 5662 5660 5658 5657 5656 5654 5653 5652 5651 5649 5648 5647 5646
5730 5728 5724 5721 5719 5717 5715 5713 5710 5707 5704 5702 5700 5698 5697 5696 5695 5693 5691 5688 5685 5681 5677 5674 5671 5668 5665 5663 5661 5659 5656 5654 5652 5650 5649 5647 5646 5645 5644 5643 5642 5641 5640
5726 5723 5720 5717 5714 5712 5710 5708 5706 5702 5700 5697 5695 5693 5692 5691 5688 5686 5684 5681 5679 5676 5674 5671 5667 5664 5662 5660 5656 5653 5651 5649 5648 5645 5643 5642 5640 5639 5638 5637 5636 5635 5633
5721 5718 5715 5712 5709 5707 5705 5703 5701 5697 5695 5693 5691 5688 5686 5684 5682 5680 5677 5674 5672 5670 5667 5665 5664 5661 5659 5656 5652 5650 5647 5643 5641 5638 5637 5636 5634 5633 5632 5630 5630 5629 5627
5716 5713 5710 5707 5704 5702 5700 5697 5694 5691 5689 5687 5686 5683 5681 5679 5676 5673 5670 5667 5665 5663 5661 5660 5658 5655 5652 5650 5647 5643 5639 5637 5635 5633 5631 5630 5629 5627 5626 5625 5624 5623 5621
5711 5708 5704 5702 5699 5697 5695 5691 5688 5685 5682 5680 5679 5677 5675 5672 5670 5666 5663 5661 5658 5657 5655 5653 5650 5648 5645 5643 5641 5639 5637 5633 5631 5629 5627 5625 5623 5621 5620 5619 5618 5616 5615